GEFSGL_con_maxscp_222.txt.gz
SCP
1 1 2 2 3 4 3 3 3 3 3 2 1 1 1 1 1 1 0 0 0 0 0 0 0 0 0 1 1 1 1 1 1 1 0 0 0 0 0 0 0 0 0
1 1 2 2 3 4 3 2 3 3 3 2 2 1 1 1 1 1 0 0 0 0 0 0 0 0 0 0 1 1 1 1 1 1 1 0 0 0 0 0 0 0 0
1 1 1 2 2 2 2 1 2 2 2 2 2 1 1 1 1 1 0 0 0 0 0 0 0 0 0 0 0 1 1 1 1 1 1 0 0 0 0 0 0 0 0
2 2 2 2 1 1 1 1 1 1 1 2 1 1 1 1 1 0 0 0 0 0 0 0 0 0 0 0 0 0 0 0 0 0 1 0 0 0 0 0 0 0 0
3 3 2 2 1 1 1 1 1 1 1 2 2 2 1 1 1 1 1 1 0 0 0 0 0 0 0 0 0 0 0 0 0 0 0 1 0 0 0 0 0 0 0
4 4 3 2 1 1 1 1 1 1 1 2 2 2 1 1 1 1 1 1 1 0 0 0 0 0 0 0 0 0 0 0 0 0 1 1 1 1 1 0 0 0 0
4 4 4 2 1 1 1 1 1 1 1 1 1 2 1 1 1 1 1 1 1 1 0 0 0 0 0 0 0 0 0 0 0 1 1 1 1 1 1 1 0 0 0
4 4 4 2 2 1 2 2 1 1 1 1 1 1 1 1 1 1 1 1 1 1 0 0 0 0 0 0 0 0 0 0 0 1 1 1 1 1 1 1 0 0 0
4 4 3 3 2 2 2 2 2 1 1 1 1 1 1 1 1 1 1 1 1 1 0 0 0 0 0 0 0 0 0 0 0 0 1 1 1 0 0 0 0 0 0
5 5 5 5 3 3 3 3 2 2 2 1 1 1 1 2 1 1 1 1 1 1 1 0 0 0 0 0 0 0 0 0 1 0 0 0 0 0 0 0 0 0 0
6 8 8 6 4 3 3 3 3 3 2 2 2 2 2 2 1 1 1 1 1 1 1 1 0 0 0 0 0 0 0 0 0 0 0 0 0 0 0 0 0 0 0
7 8 8 5 4 3 3 3 3 3 3 3 4 4 4 3 1 1 0 1 1 1 1 1 1 0 0 0 0 0 0 0 0 0 0 0 0 0 0 0 0 0 0
6 6 5 4 4 4 3 3 3 3 4 4 5 6 6 3 1 0 0 0 0 1 1 1 1 0 0 0 0 0 0 0 0 1 1 1 0 0 0 0 0 0 0
4 4 3 3 4 4 4 3 3 4 4 5 5 6 5 3 1 1 1 1 1 1 1 1 0 0 0 0 0 0 0 0 1 1 1 1 0 0 0 0 0 0 0
3 3 3 3 4 5 4 4 4 4 4 4 4 4 3 2 1 1 1 1 1 1 1 0 0 0 0 0 1 1 1 0 1 1 1 0 0 0 0 0 0 0 0
2 3 4 4 5 5 5 4 3 3 2 2 2 2 2 1 1 1 1 1 1 1 1 0 0 1 1 1 1 1 1 1 1 1 0 0 0 0 0 0 0 0 0
3 4 5 6 6 5 4 3 3 2 1 1 1 1 1 1 1 0 0 0 0 0 0 1 1 1 1 1 1 1 1 1 1 1 0 0 0 0 0 0 0 0 0
5 6 7 7 6 4 3 3 2 3 3 3 2 1 0 0 0 0 0 0 0 0 0 1 1 1 2 2 2 2 2 2 2 1 0 0 0 0 0 0 0 0 0
5 6 6 6 4 3 3 2 2 2 4 4 4 3 1 0 0 0 0 1 2 2 1 1 2 2 2 2 3 3 2 2 2 1 0 0 0 0 0 0 0 0 0
4 4 5 5 4 3 2 1 1 1 3 4 5 5 4 2 2 1 2 3 4 4 3 3 3 3 3 3 4 4 3 3 2 1 0 0 0 0 0 0 0 0 0
3 3 3 4 4 3 2 1 1 1 1 3 4 5 5 5 4 4 4 4 5 5 4 4 4 4 4 5 5 5 4 3 2 1 0 0 0 0 0 0 0 0 0
2 2 2 2 2 2 2 1 1 0 0 1 2 3 4 5 6 6 6 6 6 6 5 5 5 6 6 6 6 6 6 4 3 1 0 0 0 0 0 0 0 0 0
1 1 2 2 2 2 1 1 1 1 0 0 1 2 3 4 5 6 7 7 7 6 5 5 5 5 6 6 6 6 6 4 3 1 0 0 0 0 0 0 0 0 0
1 1 1 1 1 1 1 1 1 1 1 1 1 2 3 4 5 6 7 8 7 6 4 4 4 4 4 5 5 4 4 3 1 0 0 0 0 0 0 0 0 0 0
1 1 1 1 1 1 1 1 1 1 1 1 1 2 3 4 5 6 7 8 7 5 4 3 2 2 2 2 2 2 2 1 0 0 0 0 0 0 0 0 0 0 0
1 1 1 1 1 1 1 1 1 1 1 1 1 2 4 4 5 6 8 8 6 4 3 2 2 1 1 1 1 1 0 0 0 0 0 0 0 0 0 0 0 0 0

GEFSGL_con_maxscp_228.txt.gz
SCP
3 4 5 5 4 3 2 3 3 3 3 3 2 3 3 3 3 3 3 3 3 2 2 2 2 1 1 1 1 1 1 1 1 1 1 1 1 1 1 1 1 1 1
4 5 6 6 4 3 3 3 3 4 3 3 3 3 3 3 3 3 3 3 3 3 2 2 2 2 2 2 1 1 1 1 2 2 2 1 1 1 1 1 1 1 1
7 8 8 6 4 3 3 3 4 4 4 3 3 3 3 3 3 3 3 3 3 3 3 3 3 2 2 2 2 2 2 2 2 2 2 2 2 1 1 1 1 1 1
9 9 8 5 3 2 3 3 4 5 4 3 3 3 3 3 3 3 3 3 3 3 3 3 3 3 3 2 2 2 2 2 2 3 3 2 2 2 2 2 2 2 1
10 8 5 3 3 3 3 4 5 5 4 3 2 3 3 2 3 3 3 3 3 3 3 3 3 2 2 2 2 2 2 2 2 3 3 3 2 2 2 2 2 2 2
8 6 3 3 3 4 5 5 6 5 4 3 3 3 3 2 2 2 2 2 3 2 2 2 2 2 1 1 1 1 1 1 2 2 2 2 2 2 2 2 2 2 2
6 5 4 3 3 5 6 7 6 5 4 3 3 3 2 2 1 1 1 2 2 2 2 2 2 2 2 1 1 1 1 1 1 1 1 1 1 1 2 2 3 3 2
8 8 7 6 6 6 7 7 6 5 4 3 3 2 2 2 1 1 1 2 3 3 3 3 3 3 3 2 2 1 1 0 0 0 1 1 1 1 2 2 3 3 3
11 13 14 13 10 8 7 7 6 4 3 3 2 2 2 2 1 1 1 2 4 5 5 5 4 4 3 3 3 3 2 1 1 0 0 1 1 1 1 2 3 4 4
11 14 17 15 11 8 7 5 4 4 3 3 2 2 2 2 2 1 1 3 6 8 8 7 5 4 3 2 3 4 3 2 1 1 1 1 1 1 1 2 3 4 4
9 11 12 11 8 6 5 4 4 4 4 3 3 3 3 3 2 1 1 4 8 10 10 7 4 3 2 1 2 3 3 3 2 2 1 2 2 2 2 2 3 4 4
7 7 7 6 5 5 4 5 5 5 4 3 3 3 3 3 3 1 1 3 6 8 7 4 2 1 1 0 1 2 2 2 3 3 2 2 3 3 3 3 3 3 3
6 6 6 6 5 5 5 5 5 5 4 4 3 4 4 4 3 2 1 1 3 4 3 2 1 0 0 0 0 0 1 1 3 3 3 3 3 4 4 3 2 2 1
6 6 6 5 5 5 5 6 5 5 5 4 4 4 5 5 4 3 2 1 1 2 2 1 1 0 0 1 1 0 1 1 2 3 3 3 3 4 4 3 1 1 0
6 6 5 5 5 5 6 6 5 5 4 4 4 4 5 4 4 3 2 2 1 1 2 2 2 1 1 1 1 1 1 2 3 3 3 4 4 5 4 2 1 0 0
5 5 5 5 5 5 6 6 5 4 3 3 3 3 3 3 2 2 1 1 1 1 2 3 3 2 1 2 1 1 2 3 4 4 4 5 5 5 3 1 0 0 0
5 5 6 5 5 5 6 6 5 3 2 2 1 1 1 1 1 0 0 0 0 1 2 4 3 2 2 2 1 2 2 4 5 5 6 6 6 6 3 1 0 0 0
4 5 5 5 5 5 6 6 6 4 3 2 1 1 0 0 0 0 0 1 1 2 3 4 4 3 2 2 2 3 3 4 5 6 7 7 7 6 4 1 0 0 0
4 5 5 5 6 6 6 5 6 5 4 3 2 1 0 0 0 0 1 2 3 4 4 5 5 4 4 4 4 4 5 6 7 8 9 9 8 7 4 2 1 0 0
4 4 5 6 6 5 4 4 4 5 5 4 3 2 1 1 1 2 2 3 4 5 6 6 6 6 5 5 5 6 6 7 8 9 9 10 9 7 4 2 1 0 0
5 4 4 5 5 4 3 2 3 4 4 3 2 2 1 1 2 2 3 4 5 6 7 8 8 8 7 7 7 7 7 8 8 9 10 10 9 7 4 3 1 1 0
5 4 4 4 4 3 2 2 2 3 3 2 2 2 1 1 1 2 3 4 5 6 8 9 9 10 10 9 8 8 8 8 8 9 10 11 9 6 4 2 1 1 0
3 3 3 3 3 2 2 2 2 2 2 2 2 2 1 1 1 2 3 4 5 6 8 9 10 11 12 11 9 9 8 8 8 9 11 11 8 5 2 1 1 0 0
2 2 2 2 2 2 2 2 2 2 2 2 2 2 1 1 1 1 2 3 4 6 7 9 9 10 11 10 9 9 10 9 9 10 11 9 6 3 1 1 0 0 0
1 2 2 2 2 2 2 2 1 1 1 2 2 2 1 1 1 1 1 2 3 5 6 8 8 8 9 9 8 9 9 8 8 10 10 7 4 2 1 0 0 0 0
1 2 2 2 2 2 1 1 1 1 1 2 2 2 1 1 1 1 1 1 2 3 5 7 8 8 8 7 7 8 7 4 5 9 10 6 3 1 0 0 0 0 0

GEFSGL_con_maxscp_234.txt.gz
SCP
6 5 5 5 5 6 5 4 3 3 4 4 5 5 5 5 5 5 5 5 5 5 5 5 5 5 4 3 3 3 2 2 2 1 1 1 1 1 2 2 2 1 1
6 6 6 6 6 6 5 4 3 4 4 4 5 5 5 4 4 5 5 6 6 6 6 5 5 5 4 4 3 3 3 2 2 2 1 1 1 1 2 2 1 1 1
6 6 7 8 8 6 5 4 3 3 4 4 5 5 5 4 4 4 5 6 6 6 5 5 5 5 4 4 3 3 2 2 2 2 1 1 1 1 1 1 1 1 1
6 7 9 9 8 6 4 3 3 3 4 5 5 5 5 4 4 4 4 5 5 4 4 3 3 3 3 3 3 3 2 2 2 2 1 1 2 1 1 1 1 2 2
7 8 9 8 6 5 4 3 3 3 4 6 6 6 5 4 3 3 3 4 3 3 2 2 2 2 2 2 2 2 2 2 2 2 2 2 2 2 2 1 1 1 2
9 9 8 6 5 5 4 4 4 4 5 6 7 7 6 4 2 2 3 3 3 2 2 2 2 2 2 2 2 2 2 2 2 2 2 2 2 2 2 1 1 1 1
9 8 7 6 5 5 5 5 5 6 6 7 7 7 6 4 2 2 2 2 2 2 2 2 2 2 2 2 2 2 2 1 1 2 2 3 3 3 2 1 1 1 1
10 9 8 7 5 5 5 6 7 7 7 7 7 7 6 4 2 1 1 2 2 2 2 2 2 2 3 3 3 3 2 2 1 1 2 2 2 3 3 2 1 1 1
11 10 8 6 6 5 6 7 8 8 8 7 8 7 6 4 2 1 1 1 2 2 2 2 3 3 3 3 3 4 3 3 2 1 1 1 1 2 2 2 2 2 2
11 10 8 7 7 7 8 8 8 8 7 7 8 7 6 5 3 1 1 2 3 3 3 3 3 3 3 2 3 4 4 3 3 2 1 1 1 1 2 2 2 2 2
11 10 10 9 9 9 9 9 8 7 7 7 7 7 7 5 3 2 1 2 3 3 3 3 2 2 1 1 2 3 3 3 3 3 1 1 1 2 2 3 3 3 2
10 11 12 12 10 9 9 8 7 7 7 7 6 6 7 6 4 2 1 1 2 3 3 3 2 1 0 0 1 1 1 2 2 3 2 1 2 2 3 4 4 4 4
10 10 11 11 10 9 9 8 7 7 7 7 6 7 7 6 4 2 1 1 1 2 3 2 1 0 0 0 0 0 0 1 2 2 2 2 2 2 3 4 5 6 6
9 9 9 9 9 10 9 8 8 7 7 7 7 7 7 5 4 3 2 2 1 2 2 1 1 1 0 0 0 1 1 1 2 2 2 2 3 3 4 5 6 8 8
10 9 8 8 10 11 10 9 8 7 6 7 7 8 6 4 3 3 4 3 2 2 2 1 1 1 1 1 1 1 1 1 2 2 2 3 3 4 4 5 7 9 9
10 9 8 7 9 11 10 8 7 6 4 4 6 6 4 2 2 2 3 2 2 2 2 2 2 2 2 1 1 1 2 2 2 2 3 3 3 4 4 6 8 9 9
10 8 7 6 8 9 9 8 8 6 4 3 3 3 2 1 1 1 1 1 1 1 2 2 3 3 3 2 2 2 2 2 3 3 3 3 3 4 5 6 8 9 10
9 8 6 6 7 8 9 10 11 8 5 3 2 1 1 0 0 0 0 0 0 1 1 2 3 4 4 4 4 3 3 3 3 4 4 4 4 5 5 7 8 10 10
9 8 7 7 7 9 11 12 12 10 6 4 4 2 1 0 0 0 0 1 1 1 2 3 4 5 5 5 6 5 5 4 4 4 4 5 5 6 7 8 9 10 10
10 9 9 9 9 10 12 12 10 7 5 4 4 4 2 1 1 1 1 1 1 2 2 2 4 5 7 7 7 7 6 6 5 5 5 6 7 8 9 10 11 11 11
11 11 12 12 11 10 9 8 7 5 4 4 4 3 2 2 2 1 1 1 2 2 2 2 3 5 7 8 9 9 8 7 7 7 7 8 9 10 11 12 13 13 12
10 11 12 12 10 7 5 5 5 4 4 4 3 2 2 3 3 2 1 1 2 2 2 2 2 3 5 7 9 10 9 9 8 8 8 9 10 11 13 14 15 15 13
8 8 8 7 6 4 3 4 4 4 4 4 3 2 2 3 3 2 1 1 1 2 2 1 1 1 3 5 8 9 10 10 10 10 9 10 10 12 13 15 16 15 13
4 4 4 3 3 3 3 3 3 3 3 3 3 2 2 2 2 2 1 1 1 1 1 1 1 1 2 3 5 6 8 10 10 10 9 9 10 11 13 15 16 14 13
3 3 2 2 3 3 3 3 3 3 3 3 2 1 1 1 2 2 2 2 1 1 1 1 1 1 1 2 2 3 5 7 7 7 8 9 9 10 12 14 15 14 12
2 2 3 3 3 3 2 2 3 3 3 2 2 2 1 1 1 2 2 2 1 1 1 0 0 1 1 2 2 2 3 3 3 4 6 9 9 9 11 13 14 13 12

GEFSGL_con_maxscp_240.txt.gz
SCP
3 3 4 4 3 3 2 1 1 1 1 1 2 2 3 3 4 3 3 2 2 2 2 3 3 3 3 2 2 1 1 1 0 0 0 0 0 0 0 0 0 0 0
3 3 4 4 4 3 2 1 1 1 1 1 2 2 3 3 4 3 3 2 1 1 1 2 2 2 2 2 2 1 1 1 0 0 0 0 0 0 0 0 0 0 0
3 4 5 6 5 3 2 1 1 1 1 1 1 1 2 2 3 3 3 2 1 1 1 1 1 1 1 1 1 1 1 1 0 0 0 0 0 0 0 0 0 0 0
5 6 6 7 6 4 2 1 1 1 1 1 1 1 1 2 2 3 3 2 1 1 1 1 0 0 0 1 1 1 1 1 0 0 0 0 0 0 0 0 0 0 0
8 8 8 7 6 4 2 1 1 1 1 1 1 2 2 2 3 3 3 2 1 1 1 1 0 0 0 1 1 1 1 1 1 1 1 0 0 0 0 0 0 0 0
11 10 9 8 6 3 2 2 2 2 2 2 2 2 2 2 2 2 3 2 2 1 1 1 1 1 1 1 1 1 1 1 1 1 1 1 1 0 0 0 0 0 0
12 11 10 7 5 3 2 2 3 3 3 3 3 2 2 2 2 1 2 2 2 1 1 1 1 1 1 1 1 1 1 1 1 1 1 1 1 1 0 0 0 0 0
11 11 9 6 4 3 3 3 3 4 4 3 3 2 2 2 1 1 1 1 1 1 1 1 1 1 1 1 1 1 1 1 1 1 1 1 1 1 1 0 0 0 0
10 9 8 7 5 4 4 4 4 4 4 4 3 3 2 2 1 1 1 1 1 1 1 1 1 1 1 1 1 1 1 1 0 0 0 0 0 1 1 0 0 0 0
9 9 9 8 6 5 5 5 5 5 5 4 4 3 3 2 2 1 1 1 2 1 1 2 2 1 1 1 1 2 1 1 0 0 0 0 0 0 0 0 0 0 0
8 8 8 8 6 5 5 5 6 6 6 5 5 4 4 3 3 2 1 1 2 2 2 2 2 2 1 1 1 1 1 1 1 1 1 1 0 0 1 1 1 1 1
5 5 5 5 5 5 5 5 5 6 5 5 4 4 4 4 3 2 1 1 1 2 2 3 3 2 1 0 0 1 1 1 1 1 1 1 1 1 1 1 1 1 1
3 3 3 4 4 4 5 5 5 5 5 5 4 4 4 4 4 3 1 1 1 1 1 2 2 1 0 0 0 0 0 0 1 1 1 1 1 1 1 1 1 1 1
4 4 4 4 4 4 5 5 5 5 5 5 4 4 5 6 5 4 2 2 1 1 1 1 1 1 0 0 0 0 0 0 0 0 1 1 1 1 1 1 1 1 2
4 4 4 4 4 4 4 5 5 5 5 5 5 6 6 6 6 4 3 2 1 1 0 1 1 1 1 1 1 1 1 1 0 0 0 0 1 1 1 1 1 1 1
5 5 4 4 4 3 3 3 4 4 4 4 4 5 5 5 4 3 2 1 1 1 1 1 2 2 1 1 1 2 2 1 1 1 0 0 0 0 1 1 1 1 1
5 5 5 4 4 4 4 3 3 3 3 2 2 2 2 2 2 1 1 0 0 0 1 1 2 2 2 2 1 2 2 2 1 1 1 0 0 0 0 1 1 1 1
8 7 6 5 4 4 4 4 5 4 3 2 1 0 0 0 0 0 0 0 0 0 0 1 2 2 2 1 1 2 2 2 2 2 1 1 1 0 0 0 1 1 1
12 10 7 5 4 4 4 4 5 4 4 3 2 1 0 0 0 0 0 0 0 0 0 1 1 2 2 1 1 1 2 2 2 2 2 1 1 1 1 1 1 1 1
13 11 8 6 4 3 3 3 3 3 3 3 3 2 1 0 0 0 0 0 0 0 0 0 1 1 1 1 1 1 1 2 2 2 2 2 2 1 1 1 1 1 1
12 10 8 6 5 3 3 3 3 2 3 3 3 2 1 1 0 0 0 0 0 0 0 0 0 0 1 1 1 1 1 1 1 1 1 2 2 2 2 2 2 2 2
10 9 8 7 6 5 4 4 3 3 2 2 2 1 1 1 0 0 0 0 0 0 0 0 0 0 1 1 1 1 1 1 1 1 1 1 1 2 2 2 3 3 3
9 9 9 8 6 5 5 4 4 3 2 2 1 0 0 0 0 0 0 0 0 0 0 0 0 0 0 0 0 1 1 1 1 1 1 1 1 1 2 2 3 4 4
9 8 8 7 6 5 5 4 4 3 2 1 1 0 0 0 0 0 0 0 0 0 0 0 0 0 0 0 0 0 1 1 1 2 2 2 2 2 2 2 3 4 4
7 7 6 5 4 4 4 4 4 3 2 1 1 0 0 0 0 0 0 0 0 0 0 0 0 0 0 0 0 0 0 0 1 1 1 1 1 1 1 1 2 3 3
6 5 4 3 3 3 4 4 4 3 2 1 1 1 1 0 0 0 0 0 0 0 0 0 0 0 0 0 0 0 0 0 0 0 0 1 1 1 1 1 1 2 2

GEFSGL_con_maxscp_246.txt.gz
SCP
2 2 2 2 3 4 4 2 1 1 1 1 1 1 2 2 2 2 2 2 1 1 1 1 1 1 1 1 1 1 1 1 1 1 1 0 0 0 0 0 0 0 0
2 1 2 2 3 4 4 2 1 1 1 1 1 2 2 2 2 2 2 2 2 1 1 1 1 1 1 1 1 1 1 1 1 1 1 0 0 0 0 0 0 1 0
1 1 2 2 3 3 3 2 1 2 2 2 1 2 2 2 2 2 2 2 2 2 1 1 1 1 1 0 0 1 1 1 1 1 1 0 0 0 0 0 0 1 1
2 2 2 2 2 2 2 2 2 2 2 2 1 1 2 2 2 2 2 2 2 2 2 2 1 1 1 0 0 1 1 1 1 1 0 0 0 0 0 0 0 0 1
2 2 2 2 2 2 2 3 3 2 2 1 1 1 1 1 2 2 2 2 2 2 2 2 1 1 1 0 0 1 1 1 1 1 1 0 0 0 0 0 0 0 0
2 2 2 2 2 2 3 4 3 2 1 1 1 1 1 1 1 1 1 2 2 2 2 2 1 1 1 0 0 0 1 1 1 1 1 1 1 1 1 1 1 0 0
2 2 3 3 3 3 4 4 3 2 2 1 1 1 1 1 1 1 1 2 2 2 3 2 2 1 1 1 1 0 0 0 1 1 1 1 1 1 1 1 1 1 1
2 2 3 4 4 4 4 3 3 3 2 2 2 2 1 1 1 1 1 1 1 2 2 2 2 2 1 1 1 1 1 1 1 1 1 1 1 1 1 1 1 1 1
3 3 4 5 5 5 4 4 4 3 3 3 2 2 2 2 1 1 1 1 1 1 2 2 2 2 1 1 1 2 2 1 1 1 1 1 1 0 1 1 1 1 1
4 4 5 5 5 5 4 4 4 4 3 3 3 3 3 3 2 1 1 1 2 2 2 2 2 1 1 1 1 2 2 2 2 1 1 1 0 0 0 0 1 1 1
3 4 4 4 4 4 4 4 3 3 3 3 3 3 3 3 2 1 1 1 2 2 2 2 2 1 0 0 1 2 2 2 2 2 1 1 0 0 0 0 1 1 1
2 2 3 3 4 4 3 3 3 3 3 3 3 3 3 3 2 1 1 1 2 2 3 2 2 1 0 0 0 1 1 1 2 2 1 1 1 1 1 0 0 1 1
2 2 2 2 3 3 3 2 2 2 3 3 3 3 3 3 3 2 1 1 1 2 2 2 1 1 0 0 0 0 0 0 1 1 1 1 1 1 1 1 1 1 1
2 2 2 2 2 2 3 3 3 3 3 3 3 4 4 4 3 3 2 1 1 2 2 2 1 1 1 1 1 1 0 1 1 1 1 1 1 1 1 2 2 1 1
2 2 2 2 2 2 3 3 3 3 3 4 4 4 4 4 4 3 3 2 2 2 3 3 3 2 2 1 2 1 1 1 1 1 1 1 1 1 1 1 2 2 1
1 2 2 2 2 2 3 3 3 3 3 2 3 3 3 3 2 2 2 2 2 2 3 4 4 4 3 3 2 2 2 1 1 1 1 1 1 1 1 1 1 1 1
1 1 1 1 2 2 2 3 3 3 2 1 1 1 1 1 1 1 0 0 1 1 2 4 5 5 4 4 3 3 2 2 2 2 2 2 2 1 0 0 0 1 1
2 2 2 2 2 2 2 2 3 3 3 2 1 0 0 0 0 0 0 0 1 1 2 4 5 5 5 4 4 4 3 2 2 3 3 3 2 2 1 1 0 0 0
2 2 2 2 2 2 2 2 3 4 4 3 2 1 1 0 0 0 0 1 2 2 3 3 4 5 5 4 4 4 3 2 2 2 3 3 3 3 2 1 1 1 1
2 2 3 3 3 2 2 2 2 3 3 2 1 1 1 1 1 1 1 1 2 3 3 3 3 4 4 3 3 3 2 1 1 2 2 3 3 3 2 2 1 1 1
2 2 3 4 4 3 2 1 1 1 1 1 1 1 1 2 2 2 2 2 2 3 3 3 3 2 2 2 2 1 1 1 1 1 2 2 3 3 3 2 2 1 1
2 3 4 5 4 3 2 1 1 1 1 1 1 1 1 2 2 3 2 2 2 2 2 2 2 2 2 2 1 1 0 0 1 1 1 2 2 3 3 3 2 2 2
3 3 4 4 4 2 2 1 1 1 1 1 1 1 1 1 2 2 2 1 1 1 1 1 2 2 1 1 1 0 0 1 1 1 1 1 1 2 2 2 2 2 2
3 3 3 3 3 2 2 1 1 1 1 1 1 1 1 1 1 2 1 1 1 1 1 1 1 1 1 1 0 0 0 0 1 1 1 1 1 1 1 1 2 2 2
2 2 2 2 2 2 2 2 1 1 2 2 2 2 1 1 1 1 1 1 1 1 0 0 0 0 0 0 0 0 0 0 0 0 1 1 1 1 1 1 1 1 1
1 1 2 2 2 2 2 2 2 2 2 2 2 2 1 1 1 0 0 0 0 0 0 0 0 0 0 0 0 0 0 0 0 0 0 1 1 1 1 0 0 0 0

GEFSGL_con_maxscp_252.txt.gz
SCP
4 4 4 3 3 2 2 3 4 4 3 2 2 2 2 2 3 3 3 4 4 3 3 3 3 2 2 1 1 1 1 1 1 1 1 1 2 2 2 2 2 2 2
4 4 4 3 3 2 2 3 4 4 3 2 2 2 2 2 3 3 3 4 3 3 3 3 3 3 2 2 2 2 1 1 1 1 1 1 2 2 2 2 2 2 1
3 4 4 4 3 3 3 4 4 3 2 2 2 2 2 2 3 3 3 3 3 3 3 3 3 3 3 3 3 2 2 2 2 2 1 2 2 2 2 2 2 1 1
3 4 4 4 4 4 4 4 3 2 2 2 2 2 3 3 3 3 3 3 3 3 3 3 3 3 3 3 3 3 3 3 3 2 1 2 2 3 3 2 1 1 1
4 4 4 4 4 4 4 3 2 2 2 2 2 2 2 2 2 3 3 3 3 4 3 3 3 3 3 2 2 2 3 3 3 2 2 2 2 2 2 2 2 1 1
4 5 5 4 4 4 4 4 3 2 2 2 2 2 2 2 2 3 3 3 3 4 4 4 4 3 2 2 1 1 2 2 2 2 2 3 3 3 2 2 3 2 2
5 4 5 4 3 3 4 5 5 3 3 3 3 3 3 3 3 2 2 2 3 4 5 5 4 3 3 2 2 1 1 1 2 2 3 3 3 3 3 3 3 3 3
4 4 4 4 3 3 4 5 5 4 4 4 4 5 5 4 3 2 1 2 3 4 5 5 4 4 3 3 3 2 2 2 2 2 2 3 3 4 4 4 4 4 4
5 4 4 3 3 4 4 5 5 5 5 5 5 5 5 4 2 1 1 2 4 4 5 4 4 4 4 3 3 3 3 3 2 2 2 2 2 3 3 4 4 4 4
5 5 4 4 4 4 5 5 6 6 6 6 6 6 5 4 3 1 1 3 4 5 5 5 4 4 3 2 3 3 4 3 3 3 3 2 2 2 3 4 4 5 5
5 5 4 4 4 5 6 6 7 9 10 10 8 7 6 5 3 2 1 2 4 5 6 6 5 3 2 1 2 3 3 3 4 4 4 3 3 3 4 4 5 5 5
4 4 4 4 4 6 7 8 9 12 13 12 10 8 7 5 4 2 1 1 3 4 6 6 5 2 1 0 1 2 2 3 4 5 5 5 4 4 5 5 4 5 5
4 4 4 4 4 4 5 6 8 10 11 10 8 7 6 5 4 3 2 1 1 3 5 5 3 1 1 0 1 1 2 3 4 5 5 5 5 5 5 5 4 4 4
4 4 4 4 3 3 3 4 6 7 8 7 6 6 5 5 5 5 4 3 2 3 4 4 3 2 1 2 2 3 3 4 5 5 5 6 6 7 7 6 5 4 3
4 4 4 4 4 3 3 4 4 5 5 4 5 5 5 4 5 5 4 4 4 4 4 5 4 3 3 4 5 5 5 5 5 5 5 6 7 8 8 6 4 3 3
4 4 3 3 4 4 4 4 4 3 2 2 2 3 3 3 3 3 3 3 2 3 4 5 5 4 4 5 5 5 6 6 6 6 5 5 6 7 6 5 4 3 3
3 3 3 4 4 4 4 4 3 2 1 1 1 1 1 1 1 1 1 1 1 1 2 4 4 4 4 4 5 5 5 6 6 5 5 5 5 5 5 4 3 3 3
3 3 4 4 5 4 4 4 3 2 2 2 1 1 0 0 0 0 0 1 1 2 3 4 4 4 5 5 5 5 5 5 5 5 5 5 5 5 4 3 2 2 2
3 3 4 5 5 4 4 3 2 2 3 3 2 1 0 0 0 0 1 1 2 2 3 4 4 4 4 4 5 5 5 5 5 5 6 6 5 5 4 3 2 2 1
4 3 3 4 4 4 3 2 2 2 3 4 3 2 1 1 1 1 1 2 2 2 3 3 3 3 3 4 4 5 5 6 7 7 7 7 6 5 4 3 2 2 2
4 3 3 3 3 3 2 2 2 3 3 3 3 3 2 1 2 2 2 2 2 2 2 3 3 3 3 4 4 5 6 7 8 9 8 8 7 5 4 3 3 3 3
4 3 3 3 3 3 3 3 3 3 3 3 3 3 2 2 2 2 2 2 2 1 2 2 3 3 4 5 5 6 6 8 9 9 9 8 7 6 5 4 4 3 3
4 4 4 3 3 3 3 4 4 3 3 4 4 4 4 3 2 2 2 2 1 1 1 2 2 3 5 6 6 6 7 8 8 8 8 8 7 6 6 5 5 4 3
5 5 5 4 3 3 3 4 5 5 5 5 5 4 4 3 3 2 2 1 1 1 1 2 2 3 4 5 5 5 5 6 6 6 6 6 6 6 6 5 4 3 3
6 6 6 5 3 3 3 3 5 6 5 4 4 4 4 4 3 3 2 2 1 2 2 2 2 3 4 4 4 3 3 2 2 3 3 4 4 4 5 4 4 3 2
6 6 6 5 3 2 2 3 4 4 4 4 4 4 4 4 4 3 2 2 2 2 2 2 2 2 3 3 2 2 1 1 1 1 2 3 3 3 4 4 3 2 2

GEFSGL_con_maxscp_258.txt.gz
SCP
7 6 6 5 5 5 5 5 5 5 5 5 4 3 2 2 2 3 3 3 3 3 4 4 4 3 3 2 2 2 2 3 3 3 5 6 5 3 2 3 2 2 1
8 7 6 5 6 6 6 5 5 5 5 5 4 4 3 3 2 3 3 3 3 3 3 4 4 4 3 3 3 2 3 3 4 4 5 5 4 3 3 3 2 2 1
9 8 7 6 6 7 7 6 6 5 5 5 4 4 4 3 3 3 3 3 3 3 3 4 4 4 4 4 3 3 3 4 5 4 4 4 3 3 3 3 2 2 1
10 9 8 8 8 9 9 8 6 5 4 4 4 4 4 4 3 3 3 3 3 3 3 3 4 4 4 4 4 4 4 5 5 4 4 4 3 3 3 3 3 2 2
12 10 10 10 10 11 10 9 7 6 5 4 4 4 4 3 3 2 3 3 3 3 3 4 4 3 3 3 3 4 4 4 4 4 4 4 3 3 3 3 3 3 2
15 13 12 11 11 11 11 9 8 6 5 5 4 4 3 3 2 2 2 3 3 4 4 4 4 3 3 3 3 3 3 3 3 4 4 3 3 3 4 4 3 3 3
16 14 12 11 10 10 9 8 7 6 5 5 4 4 4 3 2 2 2 3 3 4 4 5 4 4 3 3 3 3 3 3 2 3 3 3 3 4 4 4 4 4 4
13 12 10 9 8 8 7 6 6 5 5 5 5 4 4 3 3 2 2 3 3 4 4 5 6 6 5 5 5 6 6 5 3 1 2 2 3 3 4 4 4 4 4
9 8 8 8 7 7 6 6 5 5 5 5 4 4 4 3 3 2 2 3 3 3 4 5 5 6 6 5 6 8 9 7 3 1 1 1 2 2 2 3 4 4 3
8 7 7 7 7 7 7 7 7 6 5 4 4 4 4 4 4 3 2 3 4 4 4 4 4 4 4 4 5 7 8 6 4 2 2 2 2 1 2 3 4 4 4
8 8 7 7 7 7 8 9 8 7 6 4 4 4 4 5 5 3 2 3 4 4 5 4 3 2 2 2 3 5 6 5 4 3 3 3 3 2 2 3 4 4 4
8 8 7 7 6 6 7 7 7 6 5 4 4 4 4 5 5 4 2 2 3 4 5 4 3 2 1 1 1 2 3 3 4 4 4 4 3 3 3 4 4 3 3
9 9 8 7 6 6 6 5 5 5 4 4 4 4 4 5 5 4 2 1 1 3 4 3 2 1 1 1 1 1 1 3 4 5 4 4 4 4 4 5 4 4 4
10 10 8 7 6 6 5 5 4 4 4 4 4 4 4 5 5 5 4 2 2 2 2 2 2 2 2 2 2 1 2 3 4 4 4 4 4 4 5 6 7 6 6
11 10 7 6 5 5 4 4 4 4 3 3 4 4 4 4 4 5 4 4 3 3 3 4 4 4 4 4 4 4 4 4 4 4 4 4 5 5 6 7 8 8 7
10 8 6 5 5 5 4 4 4 3 2 2 2 3 3 3 3 3 3 2 2 2 4 5 5 5 5 5 5 5 5 6 6 5 5 5 6 6 6 7 8 8 7
8 6 5 4 4 5 4 4 4 3 2 1 1 1 2 1 1 1 1 1 0 1 3 4 4 4 5 6 6 6 7 7 7 7 7 6 6 6 7 7 7 7 6
6 5 4 4 4 4 5 5 4 3 3 2 1 1 1 0 0 0 0 0 1 1 2 3 3 3 4 5 6 6 7 7 7 7 7 7 7 7 7 7 7 7 7
6 5 4 3 3 4 4 4 3 4 5 5 3 2 1 0 0 0 1 1 1 2 2 3 3 3 3 4 5 6 7 7 7 8 8 8 7 7 7 7 8 8 8
6 5 4 3 3 3 3 3 3 4 6 6 5 3 1 1 1 1 1 2 2 2 3 3 3 3 3 3 4 5 6 7 7 8 8 8 8 8 8 8 8 8 8
7 5 3 3 3 3 3 3 3 4 6 6 5 3 2 2 2 2 2 2 2 2 3 3 3 3 3 3 3 3 4 5 6 7 7 8 9 9 9 9 8 8 8
6 5 4 3 3 3 3 4 5 6 7 5 4 3 3 3 3 3 3 3 3 2 2 2 2 2 2 2 2 2 2 2 3 4 5 7 8 9 9 8 8 7 7
5 4 4 4 4 4 5 7 8 8 7 5 4 4 4 3 3 3 4 4 4 3 2 1 1 1 1 1 1 1 1 1 2 2 4 5 6 7 8 7 6 6 6
4 3 3 4 5 7 8 9 9 8 6 5 5 5 4 4 3 3 4 5 4 3 2 2 2 2 2 1 1 1 1 1 1 2 2 3 3 4 5 5 4 4 4
3 4 5 6 7 8 8 8 7 6 5 5 5 5 4 4 3 3 4 3 3 2 2 3 2 2 2 2 2 1 0 0 1 1 2 2 2 2 3 4 4 3 4
3 4 8 10 9 7 6 5 5 4 3 3 4 4 4 3 3 3 3 2 2 2 3 3 2 2 3 3 2 1 0 0 0 0 1 1 1 1 2 3 3 3 4

GEFSGL_con_maxscp_264.txt.gz
SCP
7 7 7 6 5 4 3 3 2 2 2 2 2 2 2 2 3 3 2 2 2 2 1 1 1 1 1 1 1 1 1 1 1 1 1 1 1 0 0 0 0 0 0
6 6 7 6 5 4 3 3 2 2 2 2 2 2 3 3 3 3 3 3 3 2 2 2 2 2 1 1 1 1 1 1 1 1 1 1 1 0 0 0 0 0 0
5 5 6 6 5 4 3 3 3 2 2 2 2 3 3 3 3 3 3 3 3 3 3 3 3 3 2 2 1 1 1 2 2 2 2 1 1 0 0 0 0 0 0
5 5 5 5 5 5 4 4 3 3 2 2 2 2 2 2 2 2 2 3 3 3 3 3 4 4 4 2 2 2 2 2 3 3 2 2 1 1 0 0 0 0 0
6 6 6 6 6 6 5 5 5 4 2 2 2 2 2 2 1 1 1 2 2 2 2 3 3 4 4 3 3 2 3 3 3 3 3 2 2 1 1 1 1 1 1
7 7 8 8 8 8 8 7 6 4 3 2 2 2 2 2 1 1 1 1 1 1 2 2 3 3 3 3 3 3 3 3 4 4 3 3 2 1 1 1 1 1 1
9 9 9 10 10 11 11 9 6 4 3 3 3 2 2 1 1 1 1 1 1 2 2 2 3 3 3 3 3 3 3 3 4 4 3 2 1 1 1 1 1 1 1
9 9 9 10 12 12 12 9 6 5 4 3 3 2 2 1 1 1 1 1 2 2 2 3 3 3 3 3 3 3 3 3 2 2 2 1 1 1 1 1 2 2 1
9 9 9 10 11 12 11 8 6 5 4 4 3 2 2 2 1 1 1 1 2 2 2 3 3 3 3 3 3 3 3 2 1 1 1 1 1 0 1 1 2 2 2
10 10 10 10 10 10 9 7 6 5 4 4 3 3 3 2 2 1 1 2 2 3 3 3 2 2 2 2 2 3 3 2 1 0 0 1 1 1 1 1 2 2 2
11 11 11 10 9 9 8 7 6 6 5 4 4 3 3 3 2 2 2 2 3 3 3 3 3 2 1 1 1 2 2 2 1 1 1 1 1 1 1 1 2 2 2
11 12 12 11 10 9 8 7 7 7 6 5 5 4 4 3 3 2 2 2 2 3 4 3 3 2 1 0 0 1 1 1 1 1 1 1 2 2 2 2 2 2 2
10 11 12 12 11 10 10 9 8 8 7 6 5 5 4 4 3 3 2 1 1 2 2 2 2 1 0 0 0 0 0 1 1 1 1 2 2 3 3 3 2 2 2
10 11 12 12 12 12 12 11 10 8 8 7 6 5 4 3 3 2 2 1 1 1 1 1 1 0 0 0 1 0 0 0 1 1 1 1 2 3 3 4 4 3 3
8 8 9 10 11 11 11 10 8 6 6 6 5 5 3 3 2 2 1 1 1 0 0 0 1 1 1 1 1 1 0 0 0 1 1 1 2 2 3 3 4 4 4
5 5 6 7 8 9 9 8 5 3 3 3 3 3 2 2 1 1 1 1 0 0 0 1 1 1 1 1 1 1 1 0 0 1 1 1 1 2 2 2 3 3 3
3 4 4 5 6 7 7 6 4 3 1 1 1 1 1 1 1 0 0 0 0 0 1 1 1 1 1 1 1 1 1 0 1 1 1 1 1 1 2 2 2 2 2
3 4 4 5 6 5 6 5 5 3 2 1 1 0 0 0 0 0 0 0 0 0 1 1 1 1 1 1 1 1 1 1 1 1 1 1 1 1 1 1 1 1 1
3 3 5 6 6 5 5 5 5 4 2 2 2 1 0 0 0 0 0 0 1 1 1 1 1 1 1 1 1 1 1 1 1 1 1 1 1 1 1 1 1 1 1
3 3 4 5 6 6 5 5 5 4 3 2 2 1 0 0 0 0 0 1 1 1 1 1 1 1 0 1 1 1 0 1 1 1 1 1 1 1 1 1 1 1 0
4 4 4 5 6 6 6 6 5 4 3 2 2 1 1 0 0 0 0 1 2 2 2 1 1 0 0 1 1 1 1 0 0 0 1 1 1 1 1 1 0 0 0
5 5 5 6 7 6 5 5 5 4 3 2 1 1 1 0 1 1 1 1 1 1 1 1 0 0 0 1 1 1 1 0 0 0 0 0 0 1 1 1 1 0 0
7 7 6 7 7 6 5 4 4 3 2 2 1 1 0 0 1 1 1 1 1 1 0 0 0 0 0 1 1 1 1 0 0 0 0 0 0 0 1 1 1 1 1
8 7 6 7 7 6 4 3 2 2 1 1 1 1 0 0 1 1 1 0 0 0 0 0 0 0 0 1 1 1 1 1 0 0 0 0 0 0 0 1 1 1 1
6 6 7 8 8 7 4 3 2 1 1 1 1 1 1 0 0 0 0 0 0 1 0 0 0 0 0 0 1 1 1 0 0 0 0 0 0 0 0 0 1 1 1
4 6 8 8 8 7 5 3 2 1 1 1 1 1 1 1 0 0 0 0 0 1 1 1 0 0 0 0 1 1 1 0 0 0 0 0 0 0 0 0 0 1 1

GEFSGL_con_maxscp_270.txt.gz
SCP
2 3 4 4 4 4 4 3 2 2 2 2 2 1 1 1 1 1 1 1 1 1 1 1 1 1 1 1 1 1 1 1 1 1 1 1 1 1 1 1 1 1 1
2 3 4 4 3 3 3 3 2 2 2 2 2 2 2 2 2 2 1 1 1 1 1 1 1 1 1 1 1 1 1 1 1 1 1 1 1 1 1 1 1 1 1
2 3 3 3 3 3 3 3 2 2 3 3 3 2 2 2 2 2 2 2 2 2 2 2 2 2 2 2 2 1 1 1 1 2 2 2 2 2 2 1 1 0 0
3 4 4 4 4 3 4 4 3 3 3 3 3 2 2 2 2 2 2 2 2 2 2 2 2 2 2 2 2 2 2 2 2 2 2 2 3 3 2 1 1 0 0
5 5 5 4 4 4 4 4 4 4 4 4 3 2 2 2 1 1 1 1 1 1 1 1 2 2 2 2 2 2 2 2 3 3 3 3 4 4 3 2 1 1 1
5 5 4 3 3 3 4 4 5 6 7 6 4 3 2 2 1 1 1 1 1 1 1 1 1 1 1 1 2 2 2 2 3 4 4 4 5 5 4 2 1 1 1
5 4 3 3 3 3 4 4 5 7 8 8 6 4 3 2 1 0 1 1 1 1 1 1 1 2 2 2 3 3 2 2 3 3 4 4 5 5 4 3 2 1 1
4 4 3 3 3 3 4 5 6 7 8 8 7 5 4 2 1 0 1 1 1 1 1 2 2 2 3 3 3 3 3 3 2 2 3 3 4 4 3 3 2 1 1
5 4 3 3 3 3 4 5 6 7 8 8 7 5 3 2 1 1 1 1 1 1 2 2 2 3 3 3 3 3 3 2 2 1 1 1 2 2 2 2 2 1 1
4 4 4 4 4 5 5 5 6 7 7 6 5 4 3 2 1 1 1 1 2 2 2 3 3 2 2 1 1 2 2 1 1 1 1 1 1 1 1 1 1 1 1
3 3 3 4 5 6 6 6 6 7 6 6 5 4 3 2 2 1 1 2 2 3 3 3 3 2 1 0 1 1 1 1 1 1 1 1 1 1 1 1 1 1 1
2 2 3 4 5 6 7 7 7 6 5 5 4 4 4 3 3 2 1 1 2 3 4 4 3 2 0 0 0 0 0 1 1 1 1 1 1 1 1 1 1 1 1
2 2 3 3 4 5 6 7 6 5 5 4 4 4 4 5 5 3 2 1 1 2 3 3 2 1 0 0 0 0 0 0 1 1 1 1 1 1 1 1 1 1 1
2 2 2 3 3 4 5 7 7 6 5 4 4 4 5 5 5 5 4 2 1 1 2 2 1 1 1 0 0 0 0 0 1 1 1 1 0 0 0 1 1 1 1
2 2 2 2 3 3 5 6 6 5 5 4 3 4 4 4 4 4 3 3 2 1 1 2 2 1 1 1 0 0 0 0 0 1 1 0 0 0 0 0 0 1 1
2 2 2 2 2 3 4 5 4 3 3 2 2 2 2 2 1 1 1 1 1 1 1 2 2 2 1 1 0 0 0 0 0 0 0 0 0 0 0 0 0 0 0
2 2 2 2 2 2 3 3 3 2 1 1 1 1 1 0 0 0 0 0 0 0 1 2 3 2 2 1 1 0 0 0 0 0 0 0 0 0 0 0 0 0 0
2 2 2 2 2 2 2 2 2 2 2 1 1 0 0 0 0 0 0 0 0 0 1 2 3 3 3 2 1 1 1 1 1 1 1 0 0 0 0 0 0 0 0
2 2 2 2 1 1 2 2 2 2 2 2 2 1 0 0 0 0 0 0 0 0 1 1 2 3 4 3 2 1 1 1 1 1 1 1 1 0 0 0 0 0 0
2 2 1 1 1 1 2 2 2 2 2 2 2 2 1 0 0 0 0 0 0 0 1 1 1 2 3 3 2 2 1 1 1 1 1 1 1 1 0 0 0 0 0
3 2 2 1 1 2 2 2 2 2 1 2 2 2 1 1 1 1 0 0 0 0 0 1 1 1 2 3 3 2 1 1 1 0 1 1 1 1 0 0 0 0 0
4 3 2 2 2 2 2 2 2 2 2 2 3 2 1 1 1 1 1 0 0 0 1 1 1 1 1 2 2 2 1 1 1 1 1 1 1 1 0 0 0 0 0
5 4 3 2 2 2 2 2 2 2 3 3 3 3 2 2 2 2 2 1 1 1 1 1 1 1 1 1 2 2 1 1 0 1 1 1 1 1 1 0 0 0 0
6 5 4 3 3 2 2 2 2 3 3 4 3 3 2 2 2 2 2 1 1 1 1 1 1 1 0 1 1 2 1 1 0 0 1 1 1 1 1 0 0 0 0
8 7 5 3 3 3 3 2 2 2 3 3 2 2 2 2 1 1 1 1 0 0 1 0 0 0 0 0 1 1 1 0 0 0 0 1 1 1 1 0 0 0 0
9 8 5 4 4 3 2 2 2 2 2 2 1 1 1 1 1 0 0 0 0 0 0 0 0 0 0 0 1 1 0 0 0 0 0 1 1 1 1 1 0 0 0

GEFSGL_con_maxscp_276.txt.gz
SCP
3 3 3 3 4 4 5 5 4 4 5 5 5 4 4 4 5 5 4 4 4 3 3 2 2 2 2 2 2 2 2 2 2 1 1 2 3 3 4 4 4 4 4
5 5 4 4 4 5 5 5 4 4 5 5 4 4 4 4 4 5 4 4 4 4 3 3 3 3 2 2 1 1 2 2 2 2 2 2 3 4 5 5 5 5 4
6 6 5 5 4 4 5 5 4 4 5 5 4 4 5 5 5 5 5 4 4 4 4 4 4 3 3 2 2 1 2 2 2 2 3 3 4 5 6 5 5 5 5
4 5 5 4 3 3 4 5 5 4 5 5 5 6 6 7 7 7 6 6 5 5 5 5 5 4 3 2 2 1 2 2 3 4 4 5 5 6 6 5 5 5 5
3 4 4 3 3 3 4 6 6 6 5 6 6 7 8 8 8 8 8 8 7 7 6 6 5 4 2 2 1 1 2 3 4 6 6 6 6 6 5 5 5 5 5
3 3 4 3 4 5 6 7 8 8 7 7 7 7 8 8 8 7 7 9 9 8 8 7 5 3 2 1 1 1 2 3 4 6 6 6 6 5 5 5 6 6 6
4 4 4 4 5 7 7 7 8 8 7 6 6 6 7 7 6 4 4 7 9 9 9 8 6 3 2 2 2 2 2 3 3 4 5 5 6 6 6 6 6 6 6
7 7 6 6 7 7 6 6 6 6 6 5 5 5 5 5 4 2 2 5 7 8 8 8 6 4 2 2 3 3 3 3 3 3 4 5 5 5 5 5 4 4 4
11 10 8 7 7 6 5 4 4 4 4 4 4 4 4 4 3 2 2 4 6 7 7 7 6 4 3 3 3 4 4 4 4 3 3 3 3 3 3 3 3 3 3
11 10 7 6 6 5 4 4 4 4 4 4 4 4 5 5 4 2 2 4 5 6 6 6 5 3 3 2 3 4 4 4 4 4 3 3 3 2 2 2 2 3 3
8 6 5 4 4 4 4 4 4 4 4 4 4 4 5 5 4 2 2 3 4 5 5 5 4 3 2 1 2 3 4 4 4 5 4 4 4 4 4 3 3 3 3
5 4 4 4 4 4 4 4 4 4 5 5 5 5 5 5 4 3 2 1 2 4 5 5 4 3 1 1 1 2 2 3 4 5 5 5 5 5 5 5 4 4 4
4 4 4 4 4 4 4 4 4 5 6 6 7 7 6 5 5 4 3 2 2 3 4 4 4 2 1 1 1 1 1 2 4 5 5 6 6 6 6 5 4 4 4
5 5 5 6 6 5 5 5 5 5 6 7 8 8 7 6 5 5 5 4 3 3 3 3 3 2 2 2 2 2 1 2 3 4 5 6 6 6 5 5 4 3 3
5 5 6 7 7 7 7 6 5 4 4 5 6 7 6 5 4 4 5 4 4 4 3 3 3 3 4 4 4 4 3 3 2 3 4 5 5 4 4 3 3 3 2
7 6 6 7 8 8 7 6 4 3 2 2 3 3 3 2 2 2 2 2 2 3 3 4 4 4 4 5 5 4 4 3 3 2 3 3 3 3 2 2 2 2 1
8 7 7 7 7 7 6 5 3 2 2 1 1 1 0 0 0 0 0 0 0 1 2 3 4 4 4 3 4 4 4 4 3 3 3 3 3 3 2 1 1 1 1
8 8 7 7 7 6 5 4 3 3 2 2 1 1 0 0 0 0 0 0 1 1 1 2 2 2 2 2 3 4 6 5 4 3 3 3 3 3 2 1 1 1 1
9 8 10 11 9 7 6 4 4 3 3 3 3 2 1 1 0 0 0 1 1 1 1 1 1 1 1 1 2 4 6 6 5 4 3 3 3 3 3 2 1 1 1
9 9 12 16 16 13 10 7 4 4 4 4 4 4 3 2 2 2 1 1 2 2 2 1 1 1 1 1 2 3 4 5 6 6 4 3 3 4 3 3 2 1 1
8 8 12 20 23 19 14 8 5 4 4 4 5 5 4 3 4 3 2 2 2 2 2 2 2 2 2 2 2 2 3 4 6 6 5 4 4 4 3 3 2 2 2
6 6 11 20 23 18 12 8 5 4 4 4 5 5 4 4 4 4 3 3 3 2 2 2 2 2 2 2 2 2 2 3 5 6 6 5 4 4 3 2 2 2 2
5 5 9 15 17 13 9 6 5 4 4 4 5 5 4 4 4 3 3 3 3 3 3 3 2 2 3 3 3 2 2 2 3 4 4 4 4 4 3 2 2 1 1
5 5 6 9 11 9 6 5 5 5 4 4 5 5 4 4 3 3 3 3 3 3 3 3 3 3 2 3 2 1 1 1 1 2 2 3 3 3 3 2 2 1 1
6 5 5 5 6 6 5 4 5 5 5 5 5 4 3 3 3 3 3 3 3 3 3 3 3 2 1 1 1 1 0 0 0 1 1 1 2 2 2 2 2 1 1
7 6 5 4 4 4 4 4 5 6 5 5 5 4 3 2 2 2 3 3 3 3 2 2 2 1 1 0 0 0 0 0 0 0 1 1 1 1 2 2 2 1 1